sat.trackr.live / text

‹ back to catalog

KAZSAT-2

NORAD 37749 · 2011-035B

PAYLOAD ACTIVE UNKNOWN

§ Identity

Operator
Country
KAZ
Launch date
2011-07-15
Launch site
TYMSC
Launch vehicle
Mass (kg)
RCS (m²)
7.08

Purposes: comms

External: N2YO · Heavens-Above · Gunter

§ Orbital elements

Epoch: 2026-09-08T09:22:54.877152Z

Period
1,436.14 min
Inclination
0.0139°
Eccentricity
0.0001943
Mean motion
1.00269109 rev/d
Perigee alt
35,779.2 km
Apogee alt
35,795.5 km
Semi-major
42,165.5 km
B*
0.0000e+0
RAAN
89.9893°
Arg perigee
146.5330°
Mean anomaly
338.1561°
Rev number
5,423

§ Raw data

KAZSAT-21 37749U 11035B   26251.39091293 -.00000218  00000+0  00000+0 0  99922 37749   0.0139  89.9893 0001943 146.5330 338.1561  1.00269109 54239

JSON: /api/v1/satellites/37749 · /tle

For live sub-satellite position, see the globe view (requires WebGL).

§ Visibility from observer

Set your observer location to see the next 7 days of passes ≥ 10°. The values pass through the URL so the page stays shareable.

No JS? Fill the form by hand. The geolocation button needs JavaScript.